Storm Lake, IA

11:32 PM CST on February 24, 2017 (GMT -0600)
Storm Lake Municipal

Weather History for KSLB - April, 2013

Change the Weather History Date:

Tuesday, April 23, 2013

  Actual Average Record
Temperature  
Mean Temperature 30 °F -  
Max Temperature 35 °F 62 °F 87 °F (2009)
Min Temperature 24 °F 41 °F 24 °F (2013)
Degree Days  
Heating Degree Days 36    
Moisture  
Dew Point 24 °F    
Average Humidity 80    
Maximum Humidity 93    
Minimum Humidity 65    
Precipitation  
Precipitation 0.00 in - - ()
Sea Level Pressure  
Sea Level Pressure 30.15 in    
Wind  
Wind Speed 19 mph (NNW)    
Max Wind Speed 26 mph    
Max Gust Speed 34 mph    
Visibility 10 miles    
Events Snow    
Averages and records for this station are not official NWS values.
T = Trace of Precipitation, MM = Missing Value Source: NWS Daily Summary

Daily Weather History Graph

Daily Weather History Graph

Search for Another Location

Airport or City:

Trip Planner

Search our weather history database for the weather conditions in past years. The results will help you decide how hot, cold, wet, or windy it might be!

Date:

Astronomy

Apr. 23, 2013 Rise Set
Actual Time 6:26 AM CDT 8:12 PM CDT
Civil Twilight 5:56 AM CDT 8:42 PM CDT
Nautical Twilight 5:20 AM CDT 9:19 PM CDT
Astronomical Twilight 4:41 AM CDT 9:58 PM CDT
Moon 6:06 PM CDT (4/23) 4:58 AM CDT (4/23)
Length of Visible Light 14h 45m
Length of Day
13h 45m
Waxing Gibbous, 94% of the Moon is Illuminated
Apr 23
Waxing Gibbous
Apr 25
Full
May 2
Last Quarter
May 9
New
May 17
First Quarter

Hourly Weather History & Observations

Time (CDT) Temp. Windchill Dew Point Humidity Pressure Visibility Wind Dir Wind Speed Gust Speed Precip Events Conditions
12:15 AM 30.2 °F 16.5 °F 28.4 °F 93% 30.18 in 10.0 mi NNW 24.2 mph 31.1 mph N/A   Overcast
12:35 AM 30.2 °F 15.9 °F 28.4 °F 93% 30.15 in 10.0 mi North 26.5 mph 34.5 mph N/A Snow Light Snow
12:55 AM 30.2 °F 16.8 °F 28.4 °F 93% 30.15 in 10.0 mi North 23.0 mph 31.1 mph N/A   Overcast
1:15 AM 30.2 °F 17.1 °F 28.4 °F 93% 30.19 in 10.0 mi North 21.9 mph 28.8 mph N/A   Overcast
1:35 AM 30.2 °F 17.1 °F 28.4 °F 93% 30.18 in 10.0 mi North 21.9 mph 33.4 mph N/A   Overcast
2:15 AM 28.4 °F 14.7 °F 26.6 °F 93% 30.16 in 10.0 mi North 21.9 mph - N/A   Overcast
2:35 AM 28.4 °F 14.7 °F 26.6 °F 93% 30.18 in 10.0 mi NNW 21.9 mph 27.6 mph N/A   Overcast
2:55 AM 28.4 °F 14.1 °F 26.6 °F 93% 30.14 in 10.0 mi North 24.2 mph - N/A   Overcast
3:15 AM 26.6 °F 12.7 °F 24.8 °F 93% 30.13 in 10.0 mi North 20.7 mph - N/A   Overcast
3:35 AM 26.6 °F 12.7 °F 24.8 °F 93% 30.17 in 10.0 mi North 20.7 mph - N/A   Overcast
3:55 AM 26.6 °F 13.8 °F 24.8 °F 93% 30.18 in 10.0 mi North 17.3 mph 24.2 mph N/A   Overcast
4:15 AM 26.6 °F 13.1 °F 24.8 °F 93% 30.19 in 10.0 mi NNW 19.6 mph - N/A   Scattered Clouds
4:35 AM 26.6 °F 13.8 °F 23.0 °F 86% 30.17 in 10.0 mi North 17.3 mph - N/A   Mostly Cloudy
4:55 AM 26.6 °F 14.3 °F 23.0 °F 86% 30.18 in 10.0 mi North 16.1 mph - N/A   Mostly Cloudy
5:15 AM 26.6 °F 14.3 °F 23.0 °F 86% 30.18 in 10.0 mi North 16.1 mph 23.0 mph N/A   Partly Cloudy
5:35 AM 26.6 °F 13.4 °F 21.2 °F 80% 30.18 in 10.0 mi NNW 18.4 mph 24.2 mph N/A   Clear
5:55 AM 26.6 °F 13.4 °F 21.2 °F 80% 30.17 in 10.0 mi North 18.4 mph - N/A   Clear
6:15 AM 24.8 °F 11.5 °F 19.4 °F 80% 30.16 in 10.0 mi North 17.3 mph 24.2 mph N/A   Clear
6:35 AM 24.8 °F 10.7 °F 19.4 °F 80% 30.16 in 10.0 mi North 19.6 mph 25.3 mph N/A   Clear
6:55 AM 24.8 °F 10.7 °F 19.4 °F 80% 30.15 in 10.0 mi North 19.6 mph - N/A   Clear
7:15 AM 24.8 °F 11.5 °F 19.4 °F 80% 30.16 in 10.0 mi NNW 17.3 mph - N/A   Clear
7:35 AM 24.8 °F 11.1 °F 19.4 °F 80% 30.18 in 10.0 mi NNW 18.4 mph 25.3 mph N/A   Clear
7:55 AM 24.8 °F 11.1 °F 19.4 °F 80% 30.17 in 10.0 mi North 18.4 mph - N/A   Clear
8:15 AM 24.8 °F 11.1 °F 19.4 °F 80% 30.17 in 10.0 mi North 18.4 mph 24.2 mph N/A   Light Freezing Rain
8:35 AM 24.8 °F 10.7 °F 19.4 °F 80% 30.17 in 10.0 mi North 19.6 mph 25.3 mph N/A   Light Freezing Rain
8:55 AM 24.8 °F 11.5 °F 19.4 °F 80% 30.17 in 10.0 mi North 17.3 mph - N/A   Light Freezing Rain
9:15 AM 26.6 °F 14.7 °F 21.2 °F 80% 30.17 in 10.0 mi North 15.0 mph 21.9 mph N/A   Light Freezing Rain
9:35 AM 26.6 °F 13.4 °F 21.2 °F 80% 30.16 in 10.0 mi North 18.4 mph - N/A   Light Freezing Rain
9:55 AM 26.6 °F 13.8 °F 21.2 °F 80% 30.16 in 10.0 mi North 17.3 mph 23.0 mph N/A   Light Freezing Rain
10:15 AM 28.4 °F 16.6 °F 21.2 °F 74% 30.16 in 10.0 mi NNW 16.1 mph - N/A   Light Freezing Rain
10:35 AM 28.4 °F 15.8 °F 21.2 °F 74% 30.16 in 10.0 mi North 18.4 mph - N/A   Light Freezing Rain
10:55 AM 28.4 °F 16.6 °F 23.0 °F 80% 30.16 in 10.0 mi NNW 16.1 mph 21.9 mph N/A   Clear
11:15 AM 28.4 °F 15.4 °F 23.0 °F 80% 30.16 in 10.0 mi NNW 19.6 mph - N/A   Clear
11:35 AM 28.4 °F 15.8 °F 23.0 °F 80% 30.17 in 10.0 mi NNW 18.4 mph - N/A   Clear
11:55 AM 30.2 °F - 23.0 °F 75% 30.16 in 10.0 mi North - - N/A   Clear
12:15 PM 30.2 °F 17.8 °F 23.0 °F 75% 30.16 in 10.0 mi North 19.6 mph - N/A   Clear
12:35 PM 30.2 °F 17.8 °F 24.8 °F 80% 30.16 in 10.0 mi North 19.6 mph - N/A   Clear
12:55 PM 32.0 °F 21.2 °F 24.8 °F 75% 30.16 in 10.0 mi North 16.1 mph - N/A   Clear
1:15 PM 32.0 °F 22.1 °F 24.8 °F 75% 30.15 in 10.0 mi NNW 13.8 mph - N/A   Clear
1:35 PM 32.0 °F 20.8 °F 26.6 °F 80% 30.14 in - NNW 17.3 mph - N/A   Clear
1:55 PM 32.0 °F 21.2 °F 26.6 °F 80% 30.14 in 10.0 mi NNW 16.1 mph - N/A   Partly Cloudy
2:15 PM 33.8 °F 23.9 °F 26.6 °F 75% 30.14 in 10.0 mi NNW 15.0 mph - N/A   Partly Cloudy
2:35 PM 33.8 °F 23.5 °F 26.6 °F 75% 30.14 in 10.0 mi North 16.1 mph - N/A   Scattered Clouds
2:55 PM 33.8 °F 23.5 °F 28.4 °F 81% 30.13 in 10.0 mi NNW 16.1 mph - N/A   Mostly Cloudy
3:15 PM 33.8 °F 23.5 °F 28.4 °F 81% 30.12 in 10.0 mi NNW 16.1 mph - N/A   Mostly Cloudy
3:35 PM 33.8 °F 23.5 °F 28.4 °F 81% 30.13 in 10.0 mi NNW 16.1 mph - N/A   Overcast
3:55 PM 35.6 °F 25.9 °F 28.4 °F 75% 30.13 in 10.0 mi NNW 16.1 mph - N/A   Overcast
4:15 PM 33.8 °F 23.9 °F 26.6 °F 75% 30.12 in 10.0 mi NNW 15.0 mph 21.9 mph N/A   Overcast
4:35 PM 33.8 °F 24.3 °F 26.6 °F 75% 30.12 in 10.0 mi NNW 13.8 mph - N/A   Mostly Cloudy
4:55 PM 35.6 °F 26.2 °F 24.8 °F 65% 30.11 in 10.0 mi NNW 15.0 mph - N/A   Mostly Cloudy
5:15 PM 33.8 °F 24.8 °F 23.0 °F 65% 30.12 in 10.0 mi NNW 12.7 mph 19.6 mph N/A   Mostly Cloudy
5:35 PM 33.8 °F 23.9 °F 24.8 °F 70% 30.12 in 10.0 mi North 15.0 mph 20.7 mph N/A   Scattered Clouds
5:55 PM 33.8 °F 23.9 °F 23.0 °F 65% 30.12 in 10.0 mi NW 15.0 mph - N/A   Scattered Clouds
6:15 PM 33.8 °F 23.5 °F 24.8 °F 70% 30.12 in 10.0 mi NNW 16.1 mph - N/A   Scattered Clouds
6:35 PM 32.0 °F 21.6 °F 23.0 °F 69% 30.12 in 10.0 mi NNW 15.0 mph - N/A   Partly Cloudy
6:55 PM 33.8 °F 23.5 °F 23.0 °F 65% 30.12 in 10.0 mi NNW 16.1 mph 21.9 mph N/A   Partly Cloudy
7:15 PM 33.8 °F 23.9 °F 24.8 °F 70% 30.12 in 10.0 mi NNW 15.0 mph - N/A   Partly Cloudy
7:35 PM 32.0 °F 21.6 °F 23.0 °F 69% 30.12 in 10.0 mi NNW 15.0 mph - N/A   Clear
7:55 PM 32.0 °F 22.1 °F 24.8 °F 75% 30.12 in 10.0 mi NNW 13.8 mph 20.7 mph N/A   Clear
8:15 PM 32.0 °F 23.0 °F 24.8 °F 75% 30.12 in 10.0 mi NW 11.5 mph 17.3 mph N/A   Clear
8:35 PM 30.2 °F 18.9 °F 24.8 °F 80% 30.12 in 10.0 mi NW 16.1 mph - N/A   Clear
8:55 PM 30.2 °F 20.2 °F 24.8 °F 80% 30.13 in 10.0 mi NW 12.7 mph - N/A   Clear
9:15 PM 30.2 °F 20.8 °F 24.8 °F 80% 30.13 in 10.0 mi NW 11.5 mph - N/A   Clear
9:35 PM 30.2 °F 20.8 °F 24.8 °F 80% 30.12 in 10.0 mi NW 11.5 mph - N/A   Clear
9:55 PM 30.2 °F 21.3 °F 23.0 °F 75% 30.13 in 10.0 mi NW 10.4 mph - N/A   Clear
10:15 PM 28.4 °F 19.7 °F 23.0 °F 80% 30.13 in 10.0 mi NW 9.2 mph - N/A   Clear
10:35 PM 28.4 °F 20.4 °F 23.0 °F 80% 30.13 in 10.0 mi NW 8.1 mph - N/A   Clear
10:55 PM 28.4 °F 20.4 °F 24.8 °F 86% 30.12 in 10.0 mi NW 8.1 mph - N/A   Clear
11:15 PM 28.4 °F 20.4 °F 23.0 °F 80% 30.12 in 10.0 mi NW 8.1 mph - N/A   Clear
11:35 PM 26.6 °F 17.5 °F 23.0 °F 86% 30.12 in 10.0 mi WNW 9.2 mph - N/A   Clear
11:55 PM 26.6 °F 18.2 °F 24.8 °F 93% 30.12 in 10.0 mi WNW 8.1 mph - N/A   Clear